Observations

BIA Manual Entry


Date Temp Humidity Rainfall Dew Point Wind Direction Wind Speed Wind Pressure Condition Visibility
2025-02-23 22:01:01 24 82 22 100 3.8 1013 Thundershowers 08KM
2025-02-23 21:04:29 24 83 0.00 21 010 3.8 1013 Thundershowers 08KM
2025-02-23 20:09:47 27 97 0.01 26 070 13.3 1013 Night Thunderstorm 1.5KM
2025-02-23 18:45:01 29 78 0.00 25 350 7.6 1010 Partly Cloudy (Night) 10KM
2025-02-23 17:01:33 29 80 0.0 25 340 11.4 1009 Thunderstorm 10KM
2025-02-23 16:01:58 29 78 0.0 25 350 13.3 1009 Thunderstorm 10KM
2025-02-23 14:58:47 30 73 0.0 25 330 15.2 1010 Partly Cloudy (Day) 20KM
2025-02-23 14:07:43 31 72 0.0 25 340 13.3 1011 Cloudy 20KM
2025-02-23 12:59:45 30 75 25 340 15.2 1012 Partly Cloudy (Day) 20KM
2025-02-23 12:02:16 31 70 25 340 9.5 1013 Partly Cloudy (Day) 20KM
2025-02-23 11:10:07 31 69 25 330 5.7 1013 Partly Cloudy (Day) 20KM
2025-02-23 10:00:11 29 72 0 24 190 1.9 1014 Partly Cloudy (Day) 20 KM
2025-02-23 08:59:47 26 89 0 24 210 7.6 1014 Cloudy 20 KM
2025-02-23 08:01:58 25 93 24 210 5.7 1013 Partly Cloudy (Day) 15 km
2025-02-23 07:00:19 24 95 23 200 5.7 1013 Partly Cloudy (Day) 10 km
2025-02-23 06:00:07 24 95 23 230 5.7 1012 Partly Cloudy (Day) 10 km
2025-02-23 04:59:27 24 95 24 190 7.6 1011 Partly Cloudy (Night) 10 km
2025-02-23 03:58:30 24 97 24 180 3.8 1011 Partly Cloudy (Night) 10 km
2025-02-23 02:59:52 24 97 24 170 5.7 1011 Partly Cloudy (Night) 10 KM
2025-02-23 02:00:04 25 97 24 170 3.8 1011 Cloudy 10 KM
2025-02-23 01:00:31 25 96 24 190 3.8 1012 Partly Cloudy (Night) 10 KM
2025-02-23 00:00:45 25 96 24 180 1.9 1013 Cloudy 10 KM
2025-02-22 23:01:00 24 96 24 050 3.8 1013 Cloudy 10 KM
2025-02-22 22:00:32 25 95 24 030 3.8 1013 Cloudy 10 KM
2025-02-22 21:00:01 24 97 0 24 100 5.7 1012 Cloudy 10 KM